Regional Weather Roundup
Issued by NWS

Home | Current Version | Previous Version | Graphics & Text | Print | Product List | Glossary On
Versions: 1 2 3 4 5 6 7 8 9 10 11 12 13 14 15 16 17 18 19 20 21 22 23 24 25 26 27 28 29 30 31 32 33 34 35 36 37 38 39 40 41 42 43 44 45 46 47 48 49 50
000
ASUS45 KCYS 301710
RWRWY

WYOMING REGIONAL WEATHER ROUNDUP
NATIONAL WEATHER SERVICE CHEYENNE WY
1100 AM MDT MON MAR 30 2015

NOTE:  "FAIR" INDICATES FEW OR NO CLOUDS BELOW 12,000 FEET
WITH NO SIGNIFICANT WEATHER AND/OR OBSTRUCTIONS TO VISIBILITY.

WYZ001-301800-
YELLOWSTONE NATIONAL PARK

CITY           SKY/WX    TMP DP  RH WIND       PRES   REMARKS
LK YELLOWSTONE   N/A     37  17  44 CALM      30.30S
W YELLOWSTONE  NOT AVBL

$$
WYZ002>013-054>058-071-098>099-301800-
NORTHERN WYOMING

CITY           SKY/WX    TMP DP  RH WIND       PRES   REMARKS
JACKSON        SUNNY     39  25  56 CALM      30.30S
CODY           FAIR      59  21  23 W9G16     30.16S
GREYBULL       FAIR      55  23  28 VRB6      30.15S
WORLAND        FAIR      56  21  25 CALM      30.16S
SHERIDAN       FAIR      61  30  31 N22       30.13S
BUFFALO        NOT AVBL
GILLETTE       FAIR      58  28  32 N17       30.13R
HULETT         FAIR      57  30  35 W10G18    30.12S
NEWCASTLE      FAIR      57  25  28 NW15      30.12R

$$
WYZ014>020-022>026-101>103-301800-
CENTRAL WYOMING

CITY           SKY/WX    TMP DP  RH WIND       PRES   REMARKS
BIG PINEY      FAIR      49  17  28 VRB3      30.30S
PINEDALE       FAIR      46  19  34 NW7       30.31R
DUBOIS         FAIR      50  18  27 W16       30.23F
LANDER         FAIR      58  21  24 VRB5      30.18R
RIVERTON       FAIR      57  22  25 NE7       30.19R
CASPER         FAIR      58  20  22 SW9       30.19R
DOUGLAS        FAIR      61  20  20 N9        30.17S

$$
WYZ021-027>030-104>119-301800-
SOUTHERN WYOMING

CITY           SKY/WX    TMP DP  RH WIND       PRES   REMARKS
EVANSTON       FAIR      54  18  24 W8        30.32R
KEMMERER       FAIR      52  19  28 SW13      30.31S
FORT BRIDGER   FAIR      59  17  19 NW13      30.33S
ROCK SPRINGS   FAIR      51  15  23 W12       30.29S
DIXON          FAIR      54  19  25 W5        30.32S
RAWLINS        FAIR      54  16  22 W23       30.25R
SARATOGA       FAIR      54  19  26 W15G24    30.28S
LARAMIE        FAIR      53  18  25 NW15G24   30.24S
CHEYENNE       FAIR      60  17  18 NW18G30   30.20R
TORRINGTON     FAIR      64  21  19 NW9       30.13R
PINE BLUFFS    FAIR      63  18  17 NW16G23   30.17R

$$



USA.gov is the U.S. government's official web portal to all federal, state and local government web resources and services.